Location: La Sioule Rivi�re
(46.3664°N, 3.3197°E)
Time: 13:08:27
(UTC+00:00)

COSMO-SKYMED 1 - Pass Details

Date: 29 October 2020
Orbit: 621 x 623 km, 97.9° (Epoch: 24 November)

Event Time Altitude Azimuth Distance (km) Brightness Sun altitude
Rises 17:01:20 0° 25° (NNE) 2,913 5.6 -5.0°
Reaches altitude 10° 17:03:56 10° 40° (NE) 2,001 4.7 -5.4°
Maximum altitude 17:07:25 23° 94° (E) 1,326 3.7 -6.0°
Drops below altitude 10° 17:10:52 10° 147° (SSE) 1,987 5.0 -6.6°
Sets 17:13:25 0° 162° (SSE) 2,887 5.9 -7.0°
